Hourly Data Report for June 12, 2021

CARIBOU POINT (AUT)
NOVA SCOTIA
Current Station Operator: ECCC - MSC

45°46'00.000" N
62°41'00.000" W
2.40 m
8200774
71415
WBK

Download Data

Hourly Data (June 2021)
Hourly Data Report for June 12, 2021
TIME
LST
Temp Definition
°C
Dew Point Definition
°C
Rel Hum Definition
%
Precip. Amount Definition
mm

Wind Dir Definition
10's deg

Wind Spd Definition
km/h
Visibility Definition
km
Stn Press Definition
kPa
Hmdx Definition


Wind Chill Definition


Weather Definition


00:00 10.8 5.8 71 0.0 22 16   101.38     LegendNANA
01:00 10.5 6.6 77 0.0 21 12   101.32     LegendNANA
02:00 10.2 6.8 79 0.0 21 13   101.27     LegendNANA
03:00 10.2 5.9 75 0.0 22 15   101.24     LegendNANA
04:00 10.1 4.3 67 0.0 23 11   101.19     LegendNANA
05:00 10.4 5.4 71 0.0 22 7   101.19     LegendNANA
06:00 11.2 5.4 67 0.0 23 9   101.16     LegendNANA
07:00 12.8 5.5 61 0.0 22 10   101.13     LegendNANA
08:00 15.8 4.1 46 0.0 25 9   101.10     LegendNANA
09:00 16.5 4.0 43 0.0 25 13   101.12     LegendNANA
10:00 15.8 3.8 45 0.0 26 16   101.11     LegendNANA
11:00 15.1 6.9 58 0.0 22 10   101.11     LegendNANA
12:00 17.6 7.1 50 0.0 23 7   101.02     LegendNANA
13:00 18.4 7.0 47 0.0 27 7   100.93     LegendNANA
14:00 17.1 9.1 59 0.0 33 14   100.86     LegendNANA
15:00 16.5 9.6 64 0.0 5 10   100.79     LegendNANA
16:00 16.7 10.5 67 0.0 7 6   100.76     LegendNANA
17:00 16.0 11.0 72 0.0 9 9   100.74     LegendNANA
18:00 15.1 10.3 73 0.0 13 14   100.73     LegendNANA
19:00 15.7 8.7 63 0.0 16 27   100.70     LegendNANA
20:00 14.8 7.4 61 0.0 19 20   100.73     LegendNANA
21:00 13.8 5.4 57 0.0 20 17   100.77     LegendNANA
22:00 12.5 4.6 59 0.0 21 12   100.74     LegendNANA
23:00 11.9 4.2 59 0.0 22 17   100.74     LegendNANA

Notes on Data Quality.

Legend

  • E = Estimated
  • M = Missing
  • NA = Not Available*
  • [empty] = Indicates an unobserved value
Date modified: